Starlink 5467

operational
NORAD ID: 55660 Int'l Des: 2023-021 Owner: SPXS Country: US Constellation: starlink
LEOCIRCULAR

关于 Starlink 5467

正在加载描述...

实时位置

正在加载3D地球...

即将过境

高度历史

Altitude vs Time

uPlot chart will show altitude changes over time

两行轨道根数

1 55660U 23021AJ 25307.21272962 .00000112 00000-0 17204-4 0 9990
2 55660 69.9993 123.1934 0002986 270.3864 89.6953 14.98328851150349
Epoch: Nov 3, 2025 • Age: 25 hours

当前状态

高度 593.5 km
速度 7.56 km/s
星下点 -62.69°S, 64.13°W
发射日期 Feb 17, 2023
运行时间 2.7 years
类型 internet

技术详情

分类 Payload
质量 305.00 kg
干质量 290.00 kg
总质量 305.00 kg
长度 0.20 m
直径 2.80 m
跨度 9.00 m
形状 Box + pan
制造商 SPXS
平台类型 Starlink
阶段状态 In Orbit
所有者/国家 SPXS/US

大型星座

Loading constellations...